EW8714 Weather Reports


Display with metric or nautical units.
time (UTC)temp
F
wind
direction
speed
MPH
gust
MPH
rain 1hr
in
rain 24hr
in
rain mn
in
humidity
%
barometer
mb
20260509032016 59 110 0.0 4.0 0.00 0.00 0.00 50 1014.5
20260509031512 59 110 1.0 4.0 0.00 0.00 0.00 50 1014.4
20260509031012 59 109 3.0 4.0 0.00 0.00 0.00 49 1014.4
20260509030512 59 107 1.0 4.0 0.00 0.00 0.00 48 1014.4
20260509030018 60 106 1.0 4.0 0.00 0.00 0.00 48 1014.3
20260509025517 60 106 2.0 4.0 0.00 0.00 0.00 48 1014.2
20260509025017 60 106 2.0 4.0 0.00 0.00 0.00 47 1014.2
20260509024516 61 106 1.0 3.0 0.00 0.00 0.00 46 1014.2
20260509024020 61 106 2.0 3.0 0.00 0.00 0.00 46 1014.1
20260509023520 61 106 2.0 5.0 0.00 0.00 0.00 45 1014.1
20260509023018 61 106 2.0 5.0 0.00 0.00 0.00 45 1014.1
20260509022516 61 106 2.0 4.0 0.00 0.00 0.00 45 1014.0
20260509022016 62 106 3.0 5.0 0.00 0.00 0.00 45 1014.0
20260509021521 62 106 3.0 5.0 0.00 0.00 0.00 44 1014.0
20260509021019 62 106 2.0 5.0 0.00 0.00 0.00 44 1013.9
20260509020520 63 106 3.0 5.0 0.00 0.00 0.00 43 1013.9
20260509020017 63 108 3.0 5.0 0.00 0.00 0.00 42 1013.9
20260509015517 63 108 3.0 7.0 0.00 0.00 0.00 42 1013.7
20260509015017 63 108 4.0 7.0 0.00 0.00 0.00 41 1013.7
20260509014515 64 101 3.0 7.0 0.00 0.00 0.00 41 1013.7
20260509014015 64 98 2.0 6.0 0.00 0.00 0.00 41 1013.6
20260509013517 64 98 3.0 4.0 0.00 0.00 0.00 40 1013.6
20260509013034 65 97 2.0 5.0 0.00 0.00 0.00 40 1013.6
20260509012518 65 97 2.0 5.0 0.00 0.00 0.00 39 1013.5
20260509012018 65 97 2.0 4.0 0.00 0.00 0.00 38 1013.6
20260509011517 66 97 1.0 6.0 0.00 0.00 0.00 37 1013.6
20260509011018 66 96 3.0 7.0 0.00 0.00 0.00 38 1013.5
20260509010516 67 99 2.0 7.0 0.00 0.00 0.00 38 1013.6
20260509010021 67 58 1.0 6.0 0.00 0.00 0.00 36 1013.6
20260509005521 67 110 3.0 5.0 0.00 0.00 0.00 36 1013.5
20260509005020 67 98 3.0 5.0 0.00 0.00 0.00 38 1013.6
20260509004523 67 96 2.0 6.0 0.00 0.00 0.00 37 1013.5
20260509004019 67 96 1.0 6.0 0.00 0.00 0.00 36 1013.5
20260509003520 67 94 3.0 6.0 0.00 0.00 0.00 36 1013.4
20260509003021 67 95 3.0 8.0 0.00 0.00 0.00 36 1013.5
20260509002520 68 92 3.0 8.0 0.00 0.00 0.00 36 1013.5
20260509002020 68 117 3.0 7.0 0.00 0.00 0.00 36 1013.6
20260509001523 68 86 1.0 5.0 0.00 0.00 0.00 35 1013.5
20260509001023 68 83 3.0 9.0 0.00 0.00 0.00 36 1013.6
20260509000522 68 95 4.0 9.0 0.00 0.00 0.00 35 1013.5
20260509000023 69 142 1.0 5.0 0.00 0.00 0.00 36 1013.5
20260508235522 68 131 2.0 6.0 0.00 0.00 0.00 36 1013.6
20260508235121 68 134 2.0 7.0 0.00 0.00 0.00 36 1013.6
20260508234507 68 110 4.0 9.0 0.00 0.00 0.00 36 1013.6
20260508234005 68 93 6.0 9.0 0.00 0.00 0.00 37 1013.6
20260508233505 68 89 2.0 9.0 0.00 0.00 0.00 37 1013.6
20260508233006 68 103 5.0 8.0 0.00 0.00 0.00 35 1013.7
20260508232505 68 36 4.0 8.0 0.00 0.00 0.00 37 1013.7
20260508232005 68 103 4.0 8.0 0.00 0.00 0.00 36 1013.7
20260508231525 68 130 3.0 8.0 0.00 0.00 0.00 35 1013.7
20260508231025 68 103 5.0 10.0 0.00 0.00 0.00 36 1013.6
20260508230524 69 92 4.0 11.0 0.00 0.00 0.00 38 1013.6
20260508230026 69 46 3.0 11.0 0.00 0.00 0.00 35 1013.6
20260508225509 69 73 2.0 8.0 0.00 0.00 0.00 37 1013.6
20260508225009 69 103 3.0 7.0 0.00 0.00 0.00 36 1013.6
20260508224522 69 101 2.0 7.0 0.00 0.00 0.00 35 1013.7
20260508224006 69 100 2.0 7.0 0.00 0.00 0.00 37 1013.7
20260508223511 69 96 5.0 7.0 0.00 0.00 0.00 36 1013.8
20260508223023 70 132 1.0 5.0 0.00 0.00 0.00 36 1013.9
20260508222510 69 127 1.0 6.0 0.00 0.00 0.00 35 1013.9
20260508222014 69 128 3.0 7.0 0.00 0.00 0.00 36 1013.9
20260508221508 69 92 1.0 7.0 0.00 0.00 0.00 37 1014.0
20260508221010 69 66 2.0 7.0 0.00 0.00 0.00 36 1014.1
20260508220508 69 54 1.0 10.0 0.00 0.00 0.00 35 1014.2
20260508220010 69 94 4.0 10.0 0.00 0.00 0.00 35 1014.1
20260508215509 68 352 1.0 5.0 0.00 0.00 0.00 38 1014.1
20260508215009 69 347 2.0 7.0 0.00 0.00 0.00 35 1014.2
20260508214512 70 1 3.0 7.0 0.00 0.00 0.00 35 1014.2
20260508214014 69 19 3.0 8.0 0.00 0.00 0.00 36 1014.3
20260508213513 70 122 3.0 8.0 0.00 0.00 0.00 38 1014.2
20260508213012 71 27 2.0 7.0 0.00 0.00 0.00 35 1014.2
20260508212511 70 42 2.0 7.0 0.00 0.00 0.00 36 1014.3
20260508212010 69 53 3.0 7.0 0.00 0.00 0.00 36 1014.4
20260508211513 69 41 3.0 11.0 0.00 0.00 0.00 36 1014.5
20260508211009 68 360 3.0 11.0 0.00 0.00 0.00 37 1014.4
20260508210512 67 58 4.0 9.0 0.00 0.00 0.00 42 1014.5
20260508210012 67 87 2.0 9.0 0.00 0.00 0.00 41 1014.7
20260508205518 67 117 4.0 9.0 0.00 0.00 0.00 37 1014.6
20260508205010 67 39 5.0 9.0 0.00 0.00 0.00 38 1014.7
20260508204517 67 81 3.0 9.0 0.00 0.00 0.00 39 1014.8
20260508204010 69 32 5.0 8.0 0.00 0.00 0.00 37 1014.8
20260508203510 68 68 4.0 8.0 0.00 0.00 0.00 38 1014.9
20260508203013 68 80 2.0 12.0 0.00 0.00 0.00 40 1014.9
20260508202512 67 56 4.0 12.0 0.00 0.00 0.00 38 1015.1
20260508202012 68 58 3.0 11.0 0.00 0.00 0.00 38 1015.1
20260508201512 67 23 3.0 11.0 0.00 0.00 0.00 39 1015.1
20260508201014 68 58 3.0 8.0 0.00 0.00 0.00 38 1015.2
20260508200511 67 29 3.0 6.0 0.00 0.00 0.00 41 1015.2
20260508200014 67 98 3.0 10.0 0.00 0.00 0.00 43 1015.3
20260508195513 67 37 4.0 10.0 0.00 0.00 0.00 39 1015.3
20260508195011 68 359 2.0 6.0 0.00 0.00 0.00 40 1015.3
20260508194515 68 333 3.0 6.0 0.00 0.00 0.00 36 1015.3
20260508194013 68 1 2.0 6.0 0.00 0.00 0.00 38 1015.4
20260508193513 68 54 2.0 6.0 0.00 0.00 0.00 39 1015.5
20260508193013 68 69 2.0 7.0 0.00 0.00 0.00 42 1015.6
20260508192512 66 51 3.0 7.0 0.00 0.00 0.00 40 1015.6
20260508192012 65 46 3.0 8.0 0.00 0.00 0.00 43 1015.6
20260508191514 65 44 3.0 8.0 0.00 0.00 0.00 43 1015.7
20260508191018 65 79 2.0 7.0 0.00 0.00 0.00 45 1015.8
20260508190522 65 86 3.0 7.0 0.00 0.00 0.00 44 1015.8
20260508190029 66 26 2.0 7.0 0.00 0.00 0.00 44 1015.9
20260508185517 65 20 3.0 8.0 0.00 0.00 0.00 42 1015.9
20260508185014 65 18 3.0 8.0 0.00 0.00 0.00 44 1016.0
20260508184516 65 282 4.0 8.0 0.00 0.00 0.00 46 1016.1
20260508184014 64 57 3.0 7.0 0.00 0.00 0.00 48 1016.1
20260508183513 63 25 2.0 8.0 0.00 0.00 0.00 45 1016.3
20260508183019 64 19 3.0 8.0 0.00 0.00 0.00 46 1016.5
20260508182518 64 360 2.0 6.0 0.00 0.00 0.00 47 1016.4
20260508182017 64 360 2.0 9.0 0.00 0.00 0.00 48 1016.4
20260508181522 63 1 3.0 9.0 0.00 0.00 0.00 48 1016.5
20260508181016 63 18 2.0 10.0 0.00 0.00 0.00 48 1016.6
20260508180516 62 28 4.0 10.0 0.00 0.00 0.00 49 1016.6
20260508180015 63 359 4.0 9.0 0.00 0.00 0.00 48 1016.7
20260508175514 62 40 5.0 9.0 0.00 0.00 0.00 47 1016.8
20260508175016 62 1 3.0 8.0 0.00 0.00 0.00 49 1016.8
20260508174533 62 2 4.0 9.0 0.00 0.00 0.00 48 1016.8
20260508174021 62 2 4.0 9.0 0.00 0.00 0.00 48 1016.8
20260508173517 62 1 2.0 10.0 0.00 0.00 0.00 50 1016.8
20260508173018 61 18 4.0 10.0 0.00 0.00 0.00 49 1016.9
20260508172520 61 1 4.0 11.0 0.00 0.00 0.00 48 1017.0
20260508172017 61 9 4.0 11.0 0.00 0.00 0.00 49 1017.1
20260508171521 60 65 3.0 9.0 0.00 0.00 0.00 51 1017.0
20260508171121 60 27 4.0 9.0 0.00 0.00 0.00 49 1017.1
20260508170521 61 1 3.0 9.0 0.00 0.00 0.00 50 1017.1
20260508170021 60 10 3.0 9.0 0.00 0.00 0.00 49 1017.2
20260508165519 61 350 3.0 9.0 0.00 0.00 0.00 49 1017.2
20260508165019 60 51 5.0 9.0 0.00 0.00 0.00 49 1017.3
20260508164525 60 4 4.0 9.0 0.00 0.00 0.00 51 1017.2
20260508164018 60 36 4.0 8.0 0.00 0.00 0.00 49 1017.2
20260508163519 59 28 3.0 8.0 0.00 0.00 0.00 51 1017.2
20260508163028 60 34 4.0 7.0 0.00 0.00 0.00 50 1017.1
20260508162521 59 59 3.0 6.0 0.00 0.00 0.00 53 1017.1
20260508162019 58 101 1.0 5.0 0.00 0.00 0.00 56 1017.2
20260508161536 57 101 3.0 7.0 0.00 0.00 0.00 57 1017.2
20260508161021 57 101 3.0 7.0 0.00 0.00 0.00 57 1017.2
20260508160520 58 128 2.0 6.0 0.00 0.00 0.00 57 1017.3
20260508160031 58 207 0.0 4.0 0.00 0.00 0.00 59 1017.3
20260508155524 58 207 1.0 4.0 0.00 0.00 0.00 58 1017.2
20260508155023 58 207 1.0 5.0 0.00 0.00 0.00 62 1017.2
20260508154526 57 211 1.0 5.0 0.00 0.00 0.00 61 1017.2
20260508154023 56 213 2.0 5.0 0.00 0.00 0.00 64 1017.4
20260508153522 55 215 0.0 5.0 0.00 0.00 0.00 61 1017.3
20260508153028 55 214 0.0 5.0 0.00 0.00 0.00 61 1017.4
20260508152520 55 214 1.0 5.0 0.00 0.00 0.00 61 1017.4
20260508152019 55 215 2.0 5.0 0.00 0.00 0.00 61 1017.4
20260508151535 55 217 2.0 7.0 0.00 0.00 0.00 64 1017.4
20260508151026 55 220 2.0 7.0 0.00 0.00 0.00 65 1017.3
20260508150519 54 155 1.0 6.0 0.00 0.00 0.00 70 1017.3
20260508150026 54 153 2.0 6.0 0.00 0.00 0.00 70 1017.3
20260508145521 53 217 4.0 7.0 0.00 0.00 0.00 73 1017.4
20260508145023 53 214 5.0 7.0 0.00 0.00 0.00 77 1017.4
20260508144519 52 200 4.0 8.0 0.00 0.00 0.00 78 1017.4
20260508144018 51 201 5.0 8.0 0.00 0.00 0.00 79 1017.5
20260508143520 51 206 4.0 8.0 0.00 0.00 0.00 82 1017.4
20260508143024 50 212 4.0 8.0 0.00 0.00 0.00 83 1017.3
20260508142523 50 222 5.0 8.0 0.00 0.00 0.00 84 1017.4
20260508142022 49 212 4.0 7.0 0.00 0.00 0.00 85 1017.4
20260508141521 49 210 4.0 9.0 0.00 0.00 0.00 85 1017.5
20260508141020 49 218 6.0 10.0 0.00 0.00 0.00 85 1017.5
20260508140520 48 218 4.0 10.0 0.00 0.00 0.00 86 1017.4
20260508140005 48 224 6.0 10.0 0.00 0.00 0.00 87 1017.5
20260508135506 48 227 6.0 10.0 0.00 0.00 0.00 89 1017.5
20260508135005 47 218 6.0 9.0 0.00 0.00 0.00 89 1017.5
20260508134506 47 221 4.0 7.0 0.00 0.00 0.00 89 1017.7
20260508134005 47 222 3.0 7.0 0.00 0.00 0.00 89 1017.7
20260508133505 47 218 4.0 7.0 0.00 0.00 0.00 90 1017.7
20260508133004 46 219 3.0 7.0 0.00 0.00 0.00 90 1017.7
20260508132505 46 231 4.0 7.0 0.00 0.00 0.00 90 1017.8
20260508132008 46 236 4.0 6.0 0.00 0.00 0.00 90 1017.7
20260508131505 45 238 3.0 6.0 0.00 0.00 0.00 90 1017.7
20260508131005 45 238 3.0 6.0 0.00 0.00 0.00 90 1017.7
20260508130506 45 240 3.0 5.0 0.00 0.00 0.00 90 1017.5
20260508130006 45 302 2.0 4.0 0.00 0.00 0.00 90 1017.6
20260508125506 45 303 2.0 5.0 0.00 0.00 0.00 90 1017.5
20260508125008 45 304 2.0 5.0 0.00 0.00 0.00 90 1017.7
20260508124514 45 305 3.0 5.0 0.00 0.00 0.00 90 1017.7
20260508124009 46 314 2.0 5.0 0.00 0.00 0.00 90 1017.7
20260508123509 46 316 2.0 5.0 0.00 0.00 0.00 91 1017.7
20260508123012 45 313 2.0 5.0 0.00 0.00 0.00 91 1017.8
20260508122509 45 302 2.0 5.0 0.00 0.00 0.00 92 1017.9
20260508122008 45 294 2.0 4.0 0.00 0.00 0.00 92 1017.8
20260508121509 44 258 1.0 4.0 0.00 0.00 0.00 92 1017.5
20260508121009 44 262 2.0 4.0 0.00 0.00 0.00 92 1017.5
20260508120507 44 260 0.0 3.0 0.00 0.00 0.00 92 1017.3
20260508120013 43 260 0.0 4.0 0.00 0.00 0.00 92 1017.2
20260508115513 43 260 2.0 4.0 0.00 0.00 0.00 92 1017.0
20260508115011 43 259 0.0 2.0 0.00 0.00 0.00 92 1016.9
20260508114512 43 259 1.0 2.0 0.00 0.00 0.00 92 1016.7
20260508114011 42 259 0.0 2.0 0.00 0.00 0.00 92 1016.6
20260508113513 42 259 0.0 0.0 0.00 0.00 0.00 91 1016.5
20260508113015 42 259 0.0 0.0 0.00 0.00 0.00 91 1016.5
20260508112517 42 259 0.0 0.0 0.00 0.00 0.00 91 1016.5
20260508112014 42 259 0.0 0.0 0.00 0.00 0.00 91 1016.3
20260508111513 42 259 0.0 0.0 0.00 0.00 0.00 91 1016.3
20260508111014 42 259 0.0 0.0 0.00 0.00 0.00 91 1016.3
20260508110513 42 259 0.0 2.0 0.00 0.00 0.00 91 1016.2
20260508110015 42 259 0.0 2.0 0.00 0.00 0.00 91 1016.2
20260508105515 42 259 0.0 3.0 0.00 0.00 0.00 91 1016.3
20260508105014 42 259 2.0 3.0 0.00 0.00 0.00 89 1016.3
20260508104516 44 259 0.0 1.0 0.00 0.00 0.00 91 1016.3
20260508104015 44 259 0.0 1.0 0.00 0.00 0.00 91 1016.3
20260508103515 44 259 0.0 1.0 0.00 0.00 0.00 91 1016.3
20260508103015 44 259 0.0 1.0 0.00 0.00 0.00 91 1016.2
20260508102514 44 259 0.0 2.0 0.00 0.00 0.00 91 1016.2
20260508102015 44 259 0.0 2.0 0.00 0.00 0.00 91 1016.3
20260508101515 44 259 0.0 2.0 0.00 0.00 0.00 91 1016.4
20260508101015 44 259 0.0 2.0 0.00 0.00 0.00 91 1016.3
20260508100514 44 259 0.0 3.0 0.00 0.00 0.00 91 1016.3
20260508100018 43 259 0.0 4.0 0.00 0.00 0.00 91 1016.2
20260508095519 43 257 1.0 4.0 0.00 0.00 0.00 91 1016.0
20260508095018 42 255 0.0 2.0 0.00 0.00 0.00 91 1015.4
20260508094518 42 255 0.0 3.0 0.00 0.00 0.00 90 1015.2
20260508094019 42 255 1.0 3.0 0.00 0.00 0.00 91 1015.2
20260508093517 42 255 0.0 2.0 0.00 0.00 0.00 90 1015.1
20260508093024 41 255 1.0 2.0 0.00 0.00 0.00 90 1015.1
20260508092522 41 255 0.0 3.0 0.00 0.00 0.00 89 1015.1
20260508092021 41 255 2.0 3.0 0.00 0.00 0.00 88 1015.2
20260508091532 43 255 0.0 1.0 0.00 0.00 0.00 89 1015.2
20260508091021 43 255 0.0 1.0 0.00 0.00 0.00 89 1015.3
20260508090520 43 255 0.0 2.0 0.00 0.00 0.00 88 1015.3
20260508090022 43 255 1.0 2.0 0.00 0.00 0.00 88 1015.4
20260508085520 43 255 1.0 2.0 0.00 0.00 0.00 88 1015.5
20260508085020 44 255 0.0 0.0 0.00 0.00 0.00 87 1015.5
20260508084523 44 255 0.0 0.0 0.00 0.00 0.00 86 1015.5
20260508084030 45 255 0.0 1.0 0.00 0.00 0.00 88 1015.6
20260508083522 46 255 0.0 1.0 0.00 0.00 0.00 88 1015.7
20260508083030 46 255 0.0 1.0 0.00 0.00 0.00 88 1015.8
20260508082521 46 255 0.0 1.0 0.00 0.00 0.00 88 1016.0
20260508082021 46 255 0.0 2.0 0.00 0.00 0.00 88 1016.3
20260508081525 46 255 0.0 3.0 0.00 0.00 0.00 89 1016.3
20260508081023 46 255 1.0 3.0 0.00 0.00 0.00 89 1016.3
20260508080523 45 254 2.0 3.0 0.00 0.00 0.00 87 1016.5
20260508080023 46 254 1.0 4.0 0.00 0.00 0.00 88 1016.4
20260508075523 46 254 1.0 4.0 0.00 0.00 0.00 89 1016.4
20260508075025 46 253 2.0 4.0 0.00 0.00 0.00 88 1016.4
20260508074524 45 253 0.0 3.0 0.00 0.00 0.00 88 1016.5
20260508074023 45 253 0.0 0.0 0.00 0.00 0.00 87 1016.4
20260508073522 46 253 0.0 2.0 0.00 0.00 0.00 87 1016.4
20260508073009 46 253 0.0 2.0 0.00 0.00 0.00 86 1016.4
20260508072506 46 253 0.0 2.0 0.00 0.00 0.00 87 1016.4
20260508072006 46 253 0.0 2.0 0.00 0.00 0.00 86 1016.3
20260508071532 46 253 0.0 2.0 0.00 0.00 0.00 86 1016.4
20260508071028 46 253 0.0 2.0 0.00 0.00 0.00 84 1016.3
20260508070526 47 253 1.0 3.0 0.00 0.00 0.00 84 1016.2
20260508070012 47 253 1.0 3.0 0.00 0.00 0.00 83 1016.0
20260508065513 48 253 0.0 2.0 0.00 0.00 0.00 82 1015.8
20260508065008 49 253 0.0 0.0 0.00 0.00 0.00 82 1015.7
20260508064519 49 253 0.0 0.0 0.00 0.00 0.00 81 1015.6
20260508064013 50 253 0.0 0.0 0.00 0.00 0.00 81 1015.5
20260508063512 50 253 0.0 1.0 0.00 0.00 0.00 81 1015.4
20260508063009 50 253 0.0 1.0 0.00 0.00 0.00 80 1015.5
20260508062511 51 253 0.0 1.0 0.00 0.00 0.00 80 1015.6
20260508062009 51 253 0.0 1.0 0.00 0.00 0.00 79 1015.7
20260508061512 51 253 0.0 1.0 0.00 0.00 0.00 78 1015.9
20260508061010 51 253 0.0 4.0 0.00 0.00 0.00 77 1016.0
20260508060508 51 253 1.0 4.0 0.00 0.00 0.00 75 1016.1
20260508060009 52 253 1.0 7.0 0.00 0.00 0.00 74 1016.0
20260508055507 52 254 3.0 10.0 0.00 0.00 0.00 73 1016.2
20260508055007 52 246 5.0 10.0 0.00 0.00 0.00 72 1016.8
20260508054508 53 299 2.0 7.0 0.00 0.00 0.00 70 1016.8
20260508054008 53 70 2.0 5.0 0.00 0.00 0.00 69 1016.4
20260508053508 53 71 2.0 5.0 0.00 0.00 0.00 68 1016.0
20260508053011 53 73 0.0 2.0 0.00 0.00 0.00 68 1015.5
20260508052511 53 73 0.0 4.0 0.00 0.00 0.00 67 1015.3
20260508052017 53 73 0.0 5.0 0.00 0.00 0.00 67 1015.2
20260508051511 53 73 2.0 9.0 0.00 0.00 0.00 67 1015.0
20260508051011 54 79 4.0 9.0 0.00 0.00 0.00 66 1014.9
20260508050511 54 61 3.0 9.0 0.00 0.00 0.00 65 1014.9
20260508050018 54 43 5.0 9.0 0.00 0.00 0.00 65 1014.9
20260508045514 54 46 4.0 8.0 0.00 0.00 0.00 65 1015.0
20260508045014 54 63 2.0 9.0 0.00 0.00 0.00 64 1015.0
20260508044513 54 62 2.0 7.0 0.00 0.00 0.00 64 1015.0
20260508044013 55 55 2.0 7.0 0.00 0.00 0.00 63 1014.9
20260508043516 55 52 2.0 8.0 0.00 0.00 0.00 63 1014.9
20260508043012 55 54 5.0 8.0 0.00 0.00 0.00 64 1015.0
20260508042512 55 63 2.0 5.0 0.00 0.00 0.00 65 1015.1
20260508042015 55 61 1.0 5.0 0.00 0.00 0.00 63 1015.3
20260508041519 55 64 2.0 5.0 0.00 0.00 0.00 62 1015.6
20260508041014 55 68 1.0 5.0 0.00 0.00 0.00 63 1015.6
20260508040513 55 70 1.0 3.0 0.00 0.00 0.00 62 1015.4
20260508040114 55 71 0.0 0.0 0.00 0.00 0.00 62 1015.2
20260508035513 55 71 0.0 0.0 0.00 0.00 0.00 61 1015.0
20260508035016 55 71 0.0 0.0 0.00 0.00 0.00 60 1014.9
20260508034523 55 71 0.0 3.0 0.00 0.00 0.00 60 1014.7
20260508034017 56 71 0.0 3.0 0.00 0.00 0.00 59 1014.7
20260508033515 56 70 1.0 6.0 0.00 0.00 0.00 58 1014.8
20260508033023 56 66 2.0 10.0 0.00 0.00 0.00 57 1014.8
20260508032516 57 66 4.0 10.0 0.00 0.00 0.00 55 1014.8